BREEZE-M DEB, 32034

Orbit data source: Space-Track

BREEZE-M DEB, 32034 is space debris in HEO originally from a launch on Tue, 28 Feb 2006 UTC launched from the Tyuratam Missile And Space Complex (TTMTR). Debris objects in space refer to the collection of defunct objects orbiting the Earth. Examples of debris include non-operational satellites, rocket bodies, and fragments generated from explosions, collisions, or faulty payload assembly.

Loading next visibility...
Identifier
32034, 2006-006M
Orbit
HEO
Country
Flag of CISCIS
Related business
Manufacturer
Khrunichev
Mission
Spacecraft
Bus & Motor
Unknown
Mass
Unknown
Launch date (UTC)
2006-02-28 (20 years ago)
Launch vehicle
Unknown
Launch site
Tyuratam Missile And Space Complex (TTMTR)
Object type
Payload
Rocket body
Debris
Shape & HBR
Unknown shape, 0.2 m
Radar Cross Section
Medium (>0.1 m² and <1 m²)

Expand to show TLE details & history
Last TLE update: 18 hours ago

TLE from 18 hours ago
0 BREEZE-M DEB
1 32034U 06006M   26162.37323569  .00000127  00000-0  11054-3 0  9993
2 32034  51.6470 175.9792 5088371  16.6423 355.3407  5.23939507368008
Epoch: 2026-06-11T08:57Z
TLE epoch observation values (Epoch: 2026-06-11T08:57:27.563Z)
Latitude
-0.00026°
Longitude
141.89207°
Altitude
597.863 km
Speed
9.265 km/s
True Right ascension
11h 43m 53s
True Declination
0° 00' 01"
Sunlit
Object was in daylight at epoch
Visualization orbit readout
Latitude
Unknown
Longitude
Unknown
Altitude
Unknown
Speed
Unknown
Apparent Right ascension
Unknown
Apparent Declination
Unknown
Sunlit
N/A
Visualization observer readout
Local Sidereal Time
12:49:48
Azimuth
Unknown
Elevation
Unknown
Doppler factor
Unknown
Orbital elements
Apogee altitude
14,750.374 km
Perigee altitude
499.703 km
Semi-major axis
14,003.176 km
Eccentricity
0.50884
Inclination
51.647°
RAAN
175.9792°
Arg. of periapsis
16.6423°
True anomaly
343.52774°
Mean anomaly
355.3407°
Eccentric anomaly
350.55795°
Mean motion
1.3098 °/min
Orbital period
274.85 mins
BSTAR
0.00011054
Loading maneuver chart data...
Computing Atmospheric mass density...
Loading historical data...
Loading historical data...
Loading historical data...
Loading historical data...
Loading historical data...
Loading historical data...
Loading historical data...

Documentation

Showing up to 5 results
|